time, Switch, Flow(0), Analog(2)
yyyy/mm/dd HH:MM:SS.fff, True=FILTERED|False=TOTAL, L/min, V
2023/06/23 00:00:00.230, True, 4.570, 0.127947
2023/06/23 00:00:00.718, True, 4.452, 0.126192
2023/06/23 00:00:01.222, True, 4.317, 0.128939
2023/06/23 00:00:01.726, True, 4.305, 0.125963
2023/06/23 00:00:02.223, True, 4.380, 0.127108
2023/06/23 00:00:02.726, True, 4.311, 0.127337
2023/06/23 00:00:03.230, True, 3.979, 0.129702
2023/06/23 00:00:03.726, True, 3.713, 0.128099
2023/06/23 00:00:04.230, True, 2.649, 0.128786
2023/06/23 00:00:04.734, True, 1.989, 0.127565
2023/06/23 00:00:05.230, True, 1.685, 0.127108
2023/06/23 00:00:05.734, True, 1.658, 0.128481
2023/06/23 00:00:06.238, True, 1.658, 0.127871
2023/06/23 00:00:06.734, True, 1.685, 0.130236
2023/06/23 00:00:07.238, True, 1.658, 0.127947
2023/06/23 00:00:07.741, True, 1.658, 0.126345
2023/06/23 00:00:08.238, True, 1.686, 0.126574
2023/06/23 00:00:08.742, True, 1.657, 0.128252
2023/06/23 00:00:09.245, True, 1.658, 0.127184
2023/06/23 00:00:09.742, True, 1.685, 0.126497
2023/06/23 00:00:10.246, True, 1.658, 0.126650
2023/06/23 00:00:10.750, True, 1.661, 0.129091
2023/06/23 00:00:11.246, True, 2.019, 0.126192
2023/06/23 00:00:11.750, True, 1.658, 0.127489
2023/06/23 00:00:12.254, True, 1.659, 0.125734
2023/06/23 00:00:12.750, True, 1.685, 0.127184
2023/06/23 00:00:13.254, True, 1.658, 0.125734
2023/06/23 00:00:13.758, True, 1.661, 0.126574
2023/06/23 00:00:14.254, True, 1.682, 0.129015
2023/06/23 00:00:14.758, True, 1.658, 0.128023
2023/06/23 00:00:15.254, True, 1.685, 0.129320
2023/06/23 00:00:15.758, True, 1.660, 0.127260
2023/06/23 00:00:16.262, True, 1.657, 0.127794
2023/06/23 00:00:16.758, True, 1.683, 0.129015
2023/06/23 00:00:17.262, True, 1.659, 0.125887
2023/06/23 00:00:17.766, True, 1.660, 0.129854
2023/06/23 00:00:18.262, True, 1.683, 0.126802
2023/06/23 00:00:18.766, True, 1.657, 0.127794
2023/06/23 00:00:19.270, True, 1.661, 0.127489
2023/06/23 00:00:19.766, True, 1.683, 0.128634
2023/06/23 00:00:20.270, True, 1.658, 0.127718
2023/06/23 00:00:20.774, True, 1.657, 0.128328
2023/06/23 00:00:21.270, True, 1.349, 0.128328
2023/06/23 00:00:21.774, True, 1.656, 0.127184
2023/06/23 00:00:22.278, True, 1.658, 0.128252
2023/06/23 00:00:22.782, True, 1.990, 0.128862
2023/06/23 00:00:23.278, True, 1.685, 0.125429
2023/06/23 00:00:23.782, True, 1.660, 0.126802
2023/06/23 00:00:24.286, True, 1.656, 0.127718
2023/06/23 00:00:24.782, True, 2.022, 0.127718
2023/06/23 00:00:25.286, True, 1.658, 0.127794
2023/06/23 00:00:25.790, True, 1.658, 0.127031
2023/06/23 00:00:26.286, True, 1.685, 0.129702
2023/06/23 00:00:26.790, True, 1.658, 0.127794
2023/06/23 00:00:27.294, True, 1.658, 0.127642
2023/06/23 00:00:27.790, True, 1.685, 0.129702
2023/06/23 00:00:28.294, True, 1.658, 0.126955
2023/06/23 00:00:28.798, True, 1.658, 0.124514
2023/06/23 00:00:29.294, True, 1.685, 0.128481
2023/06/23 00:00:29.798, True, 1.990, 0.130083
2023/06/23 00:00:30.302, True, 1.659, 0.126574
2023/06/23 00:00:30.798, True, 1.685, 0.126726
2023/06/23 00:00:31.302, True, 1.657, 0.128328
2023/06/23 00:00:31.806, True, 1.658, 0.128481
2023/06/23 00:00:32.302, True, 1.685, 0.127108
2023/06/23 00:00:32.806, True, 1.658, 0.126268
2023/06/23 00:00:33.310, True, 1.327, 0.128634
2023/06/23 00:00:33.806, True, 1.685, 0.128405
2023/06/23 00:00:34.310, True, 1.659, 0.129473
2023/06/23 00:00:34.806, True, 1.684, 0.128634
2023/06/23 00:00:35.310, True, 1.660, 0.127413
2023/06/23 00:00:35.814, True, 1.657, 0.128328
2023/06/23 00:00:36.318, True, 1.657, 0.127489
2023/06/23 00:00:36.814, True, 1.688, 0.128557
2023/06/23 00:00:37.318, True, 1.655, 0.129168
2023/06/23 00:00:37.822, True, 1.658, 0.128023
2023/06/23 00:00:38.318, True, 1.685, 0.131609
2023/06/23 00:00:38.822, True, 1.658, 0.129854
2023/06/23 00:00:39.318, True, 1.685, 0.130083
2023/06/23 00:00:39.822, True, 1.658, 0.129702
2023/06/23 00:00:40.326, True, 1.990, 0.128252
2023/06/23 00:00:40.822, True, 1.350, 0.130465
2023/06/23 00:00:41.326, True, 1.655, 0.131228
2023/06/23 00:00:41.830, True, 1.658, 0.130159
2023/06/23 00:00:42.326, True, 1.684, 0.132906
2023/06/23 00:00:42.830, True, 1.658, 0.131685
2023/06/23 00:00:43.333, True, 1.658, 0.133364
2023/06/23 00:00:43.830, True, 1.348, 0.132219
2023/06/23 00:00:44.334, True, 1.659, 0.131914
2023/06/23 00:00:44.838, True, 1.659, 0.133898
2023/06/23 00:00:45.334, True, 1.683, 0.134508
2023/06/23 00:00:45.838, True, 1.658, 0.133288
2023/06/23 00:00:46.342, True, 1.658, 0.134051
2023/06/23 00:00:46.838, True, 1.348, 0.135195
2023/06/23 00:00:47.342, True, 1.657, 0.136950
2023/06/23 00:00:47.846, True, 1.659, 0.136873
2023/06/23 00:00:48.342, True, 1.684, 0.137102
2023/06/23 00:00:48.846, True, 1.991, 0.138094
2023/06/23 00:00:49.350, True, 1.657, 0.134813
2023/06/23 00:00:49.854, True, 1.658, 0.138094
2023/06/23 00:00:50.350, True, 1.685, 0.137331
2023/06/23 00:00:50.854, True, 1.658, 0.135271
2023/06/23 00:00:51.350, True, 1.685, 0.136416
2023/06/23 00:00:51.854, True, 1.658, 0.136034
2023/06/23 00:00:52.358, True, 1.658, 0.137407
2023/06/23 00:00:52.862, True, 1.658, 0.138323
2023/06/23 00:00:53.358, True, 1.687, 0.135576
2023/06/23 00:00:53.862, True, 1.656, 0.138170
2023/06/23 00:00:54.358, True, 1.685, 0.138399
2023/06/23 00:00:54.861, True, 1.658, 0.139162
2023/06/23 00:00:55.366, True, 1.658, 0.139849
2023/06/23 00:00:55.862, True, 1.685, 0.139162
2023/06/23 00:00:56.366, True, 1.658, 0.137865
2023/06/23 00:00:56.869, True, 1.659, 0.140841
2023/06/23 00:00:57.366, True, 1.684, 0.138247
2023/06/23 00:00:57.870, True, 1.659, 0.139544
2023/06/23 00:00:58.374, True, 1.989, 0.139544
2023/06/23 00:00:58.870, True, 1.685, 0.138476
2023/06/23 00:00:59.374, True, 1.658, 0.139391
2023/06/23 00:00:59.878, True, 1.658, 0.139315
2023/06/23 00:01:00.374, True, 2.022, 0.139162
2023/06/23 00:01:00.878, True, 1.658, 0.138323
2023/06/23 00:01:01.374, True, 1.685, 0.140230
2023/06/23 00:01:01.878, True, 1.659, 0.138705
2023/06/23 00:01:02.382, True, 1.989, 0.140764
2023/06/23 00:01:02.886, True, 1.659, 0.142596
2023/06/23 00:01:03.382, True, 1.685, 0.140230
2023/06/23 00:01:03.886, True, 1.657, 0.140002
2023/06/23 00:01:04.390, True, 1.659, 0.141833
2023/06/23 00:01:04.886, True, 1.348, 0.142977
2023/06/23 00:01:05.390, True, 1.657, 0.140917
2023/06/23 00:01:05.894, True, 1.659, 0.141756
2023/06/23 00:01:06.390, True, 1.685, 0.139391
2023/06/23 00:01:06.894, True, 1.657, 0.141222
2023/06/23 00:01:07.398, True, 1.991, 0.141756
2023/06/23 00:01:07.902, True, 1.656, 0.140078
2023/06/23 00:01:08.398, True, 1.686, 0.140612
2023/06/23 00:01:08.902, True, 1.659, 0.139696
2023/06/23 00:01:09.406, True, 1.656, 0.138476
2023/06/23 00:01:09.902, True, 1.685, 0.141299
2023/06/23 00:01:10.406, True, 1.659, 0.141146
2023/06/23 00:01:10.910, True, 1.989, 0.142367
2023/06/23 00:01:11.406, True, 1.685, 0.141451
2023/06/23 00:01:11.910, True, 1.660, 0.141146
2023/06/23 00:01:12.406, True, 1.683, 0.139162
2023/06/23 00:01:12.909, True, 1.658, 0.140917
2023/06/23 00:01:13.414, True, 1.658, 0.140993
2023/06/23 00:01:13.910, True, 1.685, 0.142214
2023/06/23 00:01:14.414, True, 1.658, 0.141070
2023/06/23 00:01:14.918, True, 1.658, 0.142061
2023/06/23 00:01:15.414, True, 1.685, 0.140307
2023/06/23 00:01:15.918, True, 1.658, 0.140459
2023/06/23 00:01:16.422, True, 1.662, 0.141146
2023/06/23 00:01:16.918, True, 1.681, 0.141375
2023/06/23 00:01:17.422, True, 1.659, 0.142596
2023/06/23 00:01:17.926, True, 1.657, 0.139467
2023/06/23 00:01:18.422, True, 2.022, 0.142214
2023/06/23 00:01:18.926, True, 1.658, 0.141680
2023/06/23 00:01:19.430, True, 1.658, 0.141299
2023/06/23 00:01:19.926, True, 1.684, 0.140917
2023/06/23 00:01:20.430, True, 1.658, 0.139925
2023/06/23 00:01:20.934, True, 1.658, 0.138781
2023/06/23 00:01:21.430, True, 1.348, 0.139315
2023/06/23 00:01:21.934, True, 1.658, 0.140841
2023/06/23 00:01:22.438, True, 1.658, 0.141299
2023/06/23 00:01:22.934, True, 1.685, 0.140841
2023/06/23 00:01:23.438, True, 1.658, 0.140154
2023/06/23 00:01:23.942, True, 1.658, 0.140230
2023/06/23 00:01:24.438, True, 1.685, 0.138323
2023/06/23 00:01:24.942, True, 1.658, 0.142901
2023/06/23 00:01:25.446, True, 1.658, 0.141680
2023/06/23 00:01:25.942, True, 1.348, 0.140536
2023/06/23 00:01:26.446, True, 1.658, 0.139239
2023/06/23 00:01:26.950, True, 1.658, 0.141527
2023/06/23 00:01:27.446, True, 2.022, 0.139773
2023/06/23 00:01:27.950, True, 1.658, 0.141299
2023/06/23 00:01:28.454, True, 1.658, 0.142672
2023/06/23 00:01:28.950, True, 1.687, 0.138781
2023/06/23 00:01:29.454, True, 1.656, 0.142672
2023/06/23 00:01:29.950, True, 1.685, 0.140536
2023/06/23 00:01:30.454, True, 1.658, 0.139849
2023/06/23 00:01:30.958, True, 1.658, 0.140612
2023/06/23 00:01:31.453, True, 1.685, 0.141527
2023/06/23 00:01:31.958, True, 1.661, 0.143435
2023/06/23 00:01:32.462, True, 1.655, 0.140002
2023/06/23 00:01:32.958, True, 1.685, 0.142290
2023/06/23 00:01:33.462, True, 1.658, 0.140917
2023/06/23 00:01:33.965, True, 1.658, 0.141070
2023/06/23 00:01:34.462, True, 1.347, 0.142290
2023/06/23 00:01:34.965, True, 1.658, 0.140764
2023/06/23 00:01:35.469, True, 1.658, 0.139162
2023/06/23 00:01:35.966, True, 1.685, 0.140383
2023/06/23 00:01:36.470, True, 1.990, 0.139620
2023/06/23 00:01:36.974, True, 1.658, 0.141680
2023/06/23 00:01:37.470, True, 1.685, 0.138933
2023/06/23 00:01:37.974, True, 1.658, 0.142901
2023/06/23 00:01:38.478, True, 1.658, 0.139467
2023/06/23 00:01:38.974, True, 1.687, 0.140383
2023/06/23 00:01:39.478, True, 1.656, 0.139773
2023/06/23 00:01:39.982, True, 1.658, 0.140612
2023/06/23 00:01:40.478, True, 1.684, 0.140841
2023/06/23 00:01:40.981, True, 1.658, 0.139773
2023/06/23 00:01:41.486, True, 1.658, 0.140154
2023/06/23 00:01:41.982, True, 1.685, 0.140002
2023/06/23 00:01:42.485, True, 1.658, 0.139544
2023/06/23 00:01:42.990, True, 1.658, 0.141527
2023/06/23 00:01:43.494, True, 1.660, 0.139696
2023/06/23 00:01:43.989, True, 1.683, 0.141070
2023/06/23 00:01:44.493, True, 1.990, 0.142138
2023/06/23 00:01:44.998, True, 1.328, 0.140002
2023/06/23 00:01:45.494, True, 1.684, 0.140307
2023/06/23 00:01:45.997, True, 1.987, 0.139696
2023/06/23 00:01:46.502, True, 1.660, 0.139544
2023/06/23 00:01:46.997, True, 1.686, 0.139391
2023/06/23 00:01:47.502, True, 1.658, 0.139010
2023/06/23 00:01:48.006, True, 1.658, 0.141833
2023/06/23 00:01:48.502, True, 1.684, 0.140612
2023/06/23 00:01:49.006, True, 1.658, 0.139086
2023/06/23 00:01:49.510, True, 1.655, 0.140688
2023/06/23 00:01:50.005, True, 1.688, 0.140230
2023/06/23 00:01:50.510, True, 1.657, 0.140230
2023/06/23 00:01:51.014, True, 1.656, 0.140230
2023/06/23 00:01:51.510, True, 1.684, 0.139696
2023/06/23 00:01:52.014, True, 1.661, 0.140230
2023/06/23 00:01:52.518, True, 1.658, 0.137636
2023/06/23 00:01:53.014, True, 1.685, 0.139849
2023/06/23 00:01:53.517, True, 1.655, 0.140002
2023/06/23 00:01:54.022, True, 1.659, 0.139925
2023/06/23 00:01:54.526, True, 1.657, 0.140612
2023/06/23 00:01:55.022, True, 1.684, 0.140078
2023/06/23 00:01:55.526, True, 1.326, 0.139620
2023/06/23 00:01:56.030, True, 1.658, 0.139849
2023/06/23 00:01:56.526, True, 1.685, 0.141070
2023/06/23 00:01:57.030, True, 1.658, 0.142138
2023/06/23 00:01:57.534, True, 1.658, 0.139620
2023/06/23 00:01:58.030, True, 2.021, 0.139925
2023/06/23 00:01:58.534, True, 1.658, 0.138170
2023/06/23 00:01:59.038, True, 1.658, 0.140230
2023/06/23 00:01:59.534, True, 1.685, 0.139391
2023/06/23 00:02:00.037, True, 1.660, 0.139544
2023/06/23 00:02:00.542, True, 1.657, 0.141222
2023/06/23 00:02:01.038, True, 1.684, 0.138399
2023/06/23 00:02:01.541, True, 1.658, 0.139086
2023/06/23 00:02:02.046, True, 1.991, 0.136263
2023/06/23 00:02:02.542, True, 1.683, 0.137865
2023/06/23 00:02:03.046, True, 1.658, 0.137560
2023/06/23 00:02:03.550, True, 1.658, 0.138170
2023/06/23 00:02:04.046, True, 1.685, 0.139773
2023/06/23 00:02:04.550, True, 1.658, 0.138933
2023/06/23 00:02:05.054, True, 1.658, 0.139315
2023/06/23 00:02:05.550, True, 1.685, 0.139925
2023/06/23 00:02:06.054, True, 1.658, 0.137560
2023/06/23 00:02:06.558, True, 1.658, 0.138399
2023/06/23 00:02:07.054, True, 1.685, 0.139239
2023/06/23 00:02:07.557, True, 1.658, 0.139086
2023/06/23 00:02:08.062, True, 1.658, 0.139849
2023/06/23 00:02:08.557, True, 1.685, 0.137560
2023/06/23 00:02:09.062, True, 1.990, 0.139086
2023/06/23 00:02:09.558, True, 1.688, 0.136492
2023/06/23 00:02:10.061, True, 1.655, 0.137560
2023/06/23 00:02:10.566, True, 1.658, 0.136950
2023/06/23 00:02:11.061, True, 1.685, 0.139696
2023/06/23 00:02:11.566, True, 1.658, 0.139620
2023/06/23 00:02:12.070, True, 1.658, 0.138476
2023/06/23 00:02:12.566, True, 1.687, 0.139925
2023/06/23 00:02:13.070, True, 1.655, 0.136950
2023/06/23 00:02:13.574, True, 1.659, 0.137560
2023/06/23 00:02:14.078, True, 1.657, 0.136721
2023/06/23 00:02:14.574, True, 1.685, 0.134813
2023/06/23 00:02:15.078, True, 1.661, 0.136568
2023/06/23 00:02:15.582, True, 1.655, 0.139239
2023/06/23 00:02:16.078, True, 1.685, 0.137407
2023/06/23 00:02:16.582, True, 1.658, 0.137255
2023/06/23 00:02:17.086, True, 1.326, 0.138705
2023/06/23 00:02:17.581, True, 1.684, 0.138476
2023/06/23 00:02:18.086, True, 1.660, 0.138552
2023/06/23 00:02:18.590, True, 1.656, 0.137407
2023/06/23 00:02:19.086, True, 1.685, 0.138170
2023/06/23 00:02:19.590, True, 1.990, 0.139162
2023/06/23 00:02:20.094, True, 1.658, 0.138476
2023/06/23 00:02:20.590, True, 1.685, 0.138170
2023/06/23 00:02:21.093, True, 1.658, 0.138170
2023/06/23 00:02:21.598, True, 1.658, 0.138399
2023/06/23 00:02:22.094, True, 1.685, 0.139010
2023/06/23 00:02:22.598, True, 1.659, 0.138094
2023/06/23 00:02:23.102, True, 1.659, 0.136492
2023/06/23 00:02:23.598, True, 1.683, 0.136721
2023/06/23 00:02:24.102, True, 1.658, 0.138552
2023/06/23 00:02:24.606, True, 1.658, 0.136263
2023/06/23 00:02:25.101, True, 1.686, 0.137636
2023/06/23 00:02:25.606, True, 1.657, 0.137560
2023/06/23 00:02:26.110, True, 1.658, 0.138323
2023/06/23 00:02:26.606, True, 1.348, 0.138857
2023/06/23 00:02:27.109, True, 1.659, 0.137942
2023/06/23 00:02:27.614, True, 1.989, 0.138857
2023/06/23 00:02:28.109, True, 1.685, 0.139620
2023/06/23 00:02:28.614, True, 1.658, 0.136797
2023/06/23 00:02:29.110, True, 1.685, 0.138170
2023/06/23 00:02:29.614, True, 1.658, 0.137560
2023/06/23 00:02:30.118, True, 1.658, 0.137942
2023/06/23 00:02:30.613, True, 1.685, 0.137636
2023/06/23 00:02:31.118, True, 1.659, 0.139696
2023/06/23 00:02:31.621, True, 1.658, 0.137255
2023/06/23 00:02:32.117, True, 1.684, 0.138170
2023/06/23 00:02:32.622, True, 1.658, 0.138399
2023/06/23 00:02:33.126, True, 1.658, 0.136645
2023/06/23 00:02:33.622, True, 1.685, 0.137560
2023/06/23 00:02:34.126, True, 1.658, 0.137179
2023/06/23 00:02:34.630, True, 1.658, 0.137560
2023/06/23 00:02:35.126, True, 1.685, 0.138399
2023/06/23 00:02:35.629, True, 1.658, 0.136263
2023/06/23 00:02:36.125, True, 2.022, 0.137484
2023/06/23 00:02:36.630, True, 1.658, 0.137179
2023/06/23 00:02:37.134, True, 1.658, 0.135271
2023/06/23 00:02:37.630, True, 1.685, 0.139010
2023/06/23 00:02:38.134, True, 1.658, 0.138247
2023/06/23 00:02:38.638, True, 1.659, 0.133822
2023/06/23 00:02:39.134, True, 1.684, 0.138323
2023/06/23 00:02:39.638, True, 1.658, 0.137865
2023/06/23 00:02:40.142, True, 1.658, 0.137331
2023/06/23 00:02:40.637, True, 1.684, 0.138018
2023/06/23 00:02:41.142, True, 1.990, 0.136492
2023/06/23 00:02:41.646, True, 1.658, 0.137331
2023/06/23 00:02:42.142, True, 1.685, 0.138399
2023/06/23 00:02:42.646, True, 1.658, 0.136950
2023/06/23 00:02:43.150, True, 1.326, 0.138705
2023/06/23 00:02:43.646, True, 1.685, 0.135653
2023/06/23 00:02:44.150, True, 1.658, 0.138705
2023/06/23 00:02:44.646, True, 1.685, 0.137865
2023/06/23 00:02:45.149, True, 1.326, 0.138018
2023/06/23 00:02:45.654, True, 1.658, 0.135729
2023/06/23 00:02:46.149, True, 1.685, 0.134508
2023/06/23 00:02:46.654, True, 1.990, 0.135576
2023/06/23 00:02:47.158, True, 1.658, 0.137789
2023/06/23 00:02:47.654, True, 1.684, 0.135348
2023/06/23 00:02:48.158, True, 1.658, 0.135119
2023/06/23 00:02:48.661, True, 1.659, 0.134737
2023/06/23 00:02:49.157, True, 1.684, 0.136187
2023/06/23 00:02:49.662, True, 1.658, 0.136492
2023/06/23 00:02:50.166, True, 1.658, 0.136339
2023/06/23 00:02:50.662, True, 1.685, 0.136110
2023/06/23 00:02:51.166, True, 1.990, 0.138170
2023/06/23 00:02:51.670, True, 1.658, 0.137179
2023/06/23 00:02:52.166, True, 1.684, 0.137407
2023/06/23 00:02:52.670, True, 1.658, 0.135500
2023/06/23 00:02:53.174, True, 1.658, 0.136263
2023/06/23 00:02:53.678, True, 1.658, 0.135424
2023/06/23 00:02:54.174, True, 1.348, 0.136416
2023/06/23 00:02:54.678, True, 1.990, 0.138170
2023/06/23 00:02:55.181, True, 1.658, 0.135882
2023/06/23 00:02:55.678, True, 1.686, 0.135805
2023/06/23 00:02:56.182, True, 1.658, 0.137026
2023/06/23 00:02:56.686, True, 1.658, 0.135882
2023/06/23 00:02:57.182, True, 1.685, 0.134203
2023/06/23 00:02:57.686, True, 1.658, 0.134737
2023/06/23 00:02:58.190, True, 1.658, 0.136263
2023/06/23 00:02:58.686, True, 1.685, 0.137484
2023/06/23 00:02:59.190, True, 1.658, 0.136873
2023/06/23 00:02:59.694, True, 1.658, 0.138323
2023/06/23 00:03:00.190, True, 2.022, 0.136492
2023/06/23 00:03:00.694, True, 1.658, 0.134356
2023/06/23 00:03:01.198, True, 1.658, 0.139315
2023/06/23 00:03:01.694, True, 1.685, 0.136110
2023/06/23 00:03:02.198, True, 1.658, 0.136187
2023/06/23 00:03:02.701, True, 1.658, 0.134356
2023/06/23 00:03:03.198, True, 1.348, 0.135500
2023/06/23 00:03:03.702, True, 1.658, 0.138781
2023/06/23 00:03:04.206, True, 1.658, 0.135424
2023/06/23 00:03:04.702, True, 1.685, 0.137789
2023/06/23 00:03:05.206, True, 1.658, 0.133822
2023/06/23 00:03:05.710, True, 1.658, 0.134737
2023/06/23 00:03:06.205, True, 1.685, 0.133974
2023/06/23 00:03:06.710, True, 1.658, 0.135729
2023/06/23 00:03:07.214, True, 1.658, 0.135729
2023/06/23 00:03:07.710, True, 1.685, 0.137179
2023/06/23 00:03:08.214, True, 1.658, 0.136110
2023/06/23 00:03:08.710, True, 1.685, 0.135195
2023/06/23 00:03:09.214, True, 1.658, 0.136492
2023/06/23 00:03:09.718, True, 1.661, 0.134966
2023/06/23 00:03:10.221, True, 1.655, 0.134813
2023/06/23 00:03:10.718, True, 1.348, 0.136950
2023/06/23 00:03:11.222, True, 1.659, 0.135958
2023/06/23 00:03:11.724, True, 1.659, 0.133211
2023/06/23 00:03:12.221, True, 1.684, 0.135805
2023/06/23 00:03:12.726, True, 1.659, 0.134737
2023/06/23 00:03:13.229, True, 1.988, 0.136797
2023/06/23 00:03:13.725, True, 1.348, 0.136110
2023/06/23 00:03:14.229, True, 1.658, 0.135958
2023/06/23 00:03:14.733, True, 1.658, 0.136645
2023/06/23 00:03:15.229, True, 1.685, 0.133059
2023/06/23 00:03:15.733, True, 1.658, 0.137102
2023/06/23 00:03:16.238, True, 1.658, 0.135195
2023/06/23 00:03:16.733, True, 1.686, 0.136492
2023/06/23 00:03:17.237, True, 1.658, 0.136187
2023/06/23 00:03:17.741, True, 1.989, 0.134508
2023/06/23 00:03:18.238, True, 1.685, 0.136339
2023/06/23 00:03:18.741, True, 1.658, 0.135805
2023/06/23 00:03:19.245, True, 1.658, 0.135119
2023/06/23 00:03:19.741, True, 1.685, 0.135042
2023/06/23 00:03:20.245, True, 1.660, 0.132906
2023/06/23 00:03:20.750, True, 1.656, 0.134279
2023/06/23 00:03:21.245, True, 1.685, 0.136568
2023/06/23 00:03:21.749, True, 1.657, 0.136492
2023/06/23 00:03:22.254, True, 1.658, 0.134966
2023/06/23 00:03:22.750, True, 1.685, 0.136110
2023/06/23 00:03:23.253, True, 1.659, 0.135348
2023/06/23 00:03:23.757, True, 1.993, 0.135195
2023/06/23 00:03:24.262, True, 1.654, 0.133898
2023/06/23 00:03:24.758, True, 1.685, 0.136263
2023/06/23 00:03:25.261, True, 1.660, 0.135958
2023/06/23 00:03:25.765, True, 1.657, 0.135576
2023/06/23 00:03:26.261, True, 1.683, 0.135729
2023/06/23 00:03:26.766, True, 1.658, 0.135805
2023/06/23 00:03:27.270, True, 1.658, 0.135195
2023/06/23 00:03:27.765, True, 1.685, 0.136339
2023/06/23 00:03:28.269, True, 1.658, 0.133440
2023/06/23 00:03:28.774, True, 1.659, 0.132677
2023/06/23 00:03:29.269, True, 1.683, 0.135958
2023/06/23 00:03:29.773, True, 1.660, 0.136034
2023/06/23 00:03:30.277, True, 1.655, 0.135042
2023/06/23 00:03:30.773, True, 1.685, 0.135119
2023/06/23 00:03:31.277, True, 1.658, 0.135424
2023/06/23 00:03:31.781, True, 1.658, 0.133364
2023/06/23 00:03:32.277, True, 1.684, 0.134737
2023/06/23 00:03:32.781, True, 1.658, 0.134890
2023/06/23 00:03:33.285, True, 1.658, 0.134356
2023/06/23 00:03:33.781, True, 1.685, 0.136416
2023/06/23 00:03:34.285, True, 1.658, 0.133440
2023/06/23 00:03:34.789, True, 1.660, 0.133135
2023/06/23 00:03:35.285, True, 1.683, 0.135729
2023/06/23 00:03:35.789, True, 1.328, 0.135729
2023/06/23 00:03:36.293, True, 1.988, 0.133745
2023/06/23 00:03:36.789, True, 1.684, 0.137407
2023/06/23 00:03:37.293, True, 1.658, 0.133516
2023/06/23 00:03:37.797, True, 1.658, 0.134356
2023/06/23 00:03:38.293, True, 1.684, 0.133516
2023/06/23 00:03:38.797, True, 1.659, 0.135424
2023/06/23 00:03:39.301, True, 1.658, 0.133440
2023/06/23 00:03:39.805, True, 1.658, 0.133822
2023/06/23 00:03:40.301, True, 1.687, 0.134127
2023/06/23 00:03:40.805, True, 1.656, 0.134356
2023/06/23 00:03:41.301, True, 1.685, 0.132219
2023/06/23 00:03:41.805, True, 1.658, 0.135195
2023/06/23 00:03:42.309, True, 1.658, 0.135500
2023/06/23 00:03:42.813, True, 1.658, 0.133669
2023/06/23 00:03:43.309, True, 1.685, 0.133822
2023/06/23 00:03:43.813, True, 1.658, 0.133440
2023/06/23 00:03:44.316, True, 1.658, 0.134585
2023/06/23 00:03:44.813, True, 1.685, 0.134890
2023/06/23 00:03:45.317, True, 1.658, 0.134279
2023/06/23 00:03:45.813, True, 2.022, 0.133669
2023/06/23 00:03:46.317, True, 1.661, 0.132296
2023/06/23 00:03:46.821, True, 1.655, 0.134508
2023/06/23 00:03:47.317, True, 1.689, 0.134890
2023/06/23 00:03:47.821, True, 1.655, 0.133135
2023/06/23 00:03:48.325, True, 1.658, 0.135653
2023/06/23 00:03:48.829, True, 1.658, 0.134432
2023/06/23 00:03:49.325, True, 1.348, 0.134432
2023/06/23 00:03:49.829, True, 1.990, 0.133745
2023/06/23 00:03:50.333, True, 1.658, 0.132677
2023/06/23 00:03:50.829, True, 1.685, 0.135576
2023/06/23 00:03:51.333, True, 1.658, 0.137789
2023/06/23 00:03:51.829, True, 1.348, 0.132753
2023/06/23 00:03:52.333, True, 1.661, 0.132830
2023/06/23 00:03:52.837, True, 1.656, 0.133898
2023/06/23 00:03:53.333, True, 1.684, 0.132143
2023/06/23 00:03:53.837, True, 1.658, 0.133822
2023/06/23 00:03:54.341, True, 1.659, 0.131838
2023/06/23 00:03:54.837, True, 1.683, 0.133364
2023/06/23 00:03:55.341, True, 1.658, 0.133898
2023/06/23 00:03:55.845, True, 1.658, 0.133745
2023/06/23 00:03:56.341, True, 1.685, 0.133440
2023/06/23 00:03:56.845, True, 1.658, 0.135042
2023/06/23 00:03:57.341, True, 1.685, 0.132982
2023/06/23 00:03:57.845, True, 1.658, 0.133440
2023/06/23 00:03:58.349, True, 1.658, 0.131762
2023/06/23 00:03:58.853, True, 1.658, 0.134127
2023/06/23 00:03:59.349, True, 1.684, 0.133440
2023/06/23 00:03:59.853, True, 1.658, 0.133364
2023/06/23 00:04:00.357, True, 1.990, 0.133898
2023/06/23 00:04:00.853, True, 1.685, 0.131151
2023/06/23 00:04:01.357, True, 1.658, 0.132296
2023/06/23 00:04:01.861, True, 1.658, 0.133516
2023/06/23 00:04:02.357, True, 1.348, 0.135653
2023/06/23 00:04:02.861, True, 1.658, 0.132296
2023/06/23 00:04:03.357, True, 2.022, 0.135119
2023/06/23 00:04:03.861, True, 1.658, 0.132677
2023/06/23 00:04:04.365, True, 1.661, 0.132753
2023/06/23 00:04:04.861, True, 1.682, 0.136110
2023/06/23 00:04:05.365, True, 1.661, 0.134203
2023/06/23 00:04:05.869, True, 1.656, 0.134432
2023/06/23 00:04:06.365, True, 1.684, 0.133593
2023/06/23 00:04:06.869, True, 1.658, 0.132372
2023/06/23 00:04:07.373, True, 1.658, 0.134737
2023/06/23 00:04:07.869, True, 1.348, 0.133364
2023/06/23 00:04:08.373, True, 1.989, 0.131304
2023/06/23 00:04:08.877, True, 1.658, 0.134661
2023/06/23 00:04:09.373, True, 1.685, 0.134813